[[{"header":{"parameterUnit":"m.s-1","parameterCategory":1,"la1":30.2991,"la2":30.254,"lo1":-89.0895,"lo2":-89.0444,"dy":0.0017,"dx":0.0017,"nx":28,"ny":28,"refTime":"2025-07-27T09:00:00:Z","depth":0,"parameterNumber":2,"parameterNumberName":"U-component_of_WINDS"},"data":[0,0,0,0,0,0,0,0,0,0,0,0,0,0,0,0,0,0,0,0,0,0,0,0,0,0,0,0,0,0,0,0,0,0,0,0,0,0,0,0,0,0,0,0,0,0,0,0,0,0,0,0,0,0,0,0,0,0,0.0623,0.0623,0,0.0626,0.0626,0.0626,0.061,0.0609,0.0609,0.0608,0.0612,0.0612,0.0613,0,0,0,0,0,0,0,0,0,0,0,0,0,0.0601,0.0602,0.0623,0.0623,0.0623,0.0626,0.0626,0.0626,0.061,0.0609,0.0609,0.0608,0.0611,0.0612,0.0613,0,0,0,0,0,0,0,0,0,0,0,0,0,0.0608,0.0602,0.0623,0.0615,0.0614,0.0626,0.0626,0.0626,0.061,0.0609,0.0609,0.0608,0.0611,0.0612,0.0613,0.0631,0,0,0.0615,0.0615,0,0,0,0,0,0,0,0,0.0608,0.0609,0.0616,0.0616,0.0615,0.0617,0.062,0.0628,0.061,0.0612,0.0608,0.0608,0.0614,0.0614,0.0616,0.0632,0.0632,0.0615,0.0616,0.0616,0.0616,0,0,0,0,0,0,0,0.0607,0.0609,0.0624,0.0616,0.0615,0.0611,0.0611,0.0621,0.0617,0.0611,0.061,0.0611,0.0613,0.0616,0.0616,0.0632,0.0615,0.0616,0.0616,0.0617,0.0661,0.0662,0,0,0,0,0,0,0.0608,0.0608,0.0624,0.0624,0.061,0.0612,0.0612,0.0617,0.0616,0.0616,0.0612,0.061,0.0615,0.0616,0.0616,0.0638,0.0616,0.0617,0.0617,0.0661,0.0662,0.0662,0,0,0,0,0,0,0.0608,0.061,0.0624,0.0616,0.0617,0.0613,0.0618,0.0617,0.062,0.0616,0.0616,0.0615,0.0614,0.0615,0.0628,0.0638,0.0617,0.0618,0.066,0.0661,0.0662,0.0681,0,0,0,0,0,0,0.0607,0.0609,0.0617,0.0616,0.0618,0.0635,0.0619,0.0618,0.0621,0.0619,0.0619,0.0619,0.0614,0.0627,0.0628,0.0638,0.0618,0.0659,0.066,0.0662,0.0679,0.0682,0.0685,0,0,0,0,0,0.0606,0.0622,0.0617,0.0619,0.0627,0.0636,0.0637,0.0631,0.0622,0.0629,0.0627,0.0619,0.0636,0.0628,0.063,0.064,0.0658,0.066,0.0662,0.0678,0.0682,0.0685,0,0,0,0,0,0,0.0624,0.0622,0.0617,0.0633,0.0634,0.0633,0.0642,0.0635,0.0639,0.0637,0.063,0.063,0.0643,0.0643,0.0634,0.0658,0.0646,0.0648,0.0657,0.0661,0.0664,0.0663,0.0619,0,0,0,0,0,0.063,0.0637,0.0635,0.0649,0.0651,0.0646,0.065,0.0645,0.0646,0.0647,0.0646,0.0647,0.0653,0.0657,0.0662,0.0679,0.0679,0.0687,0.069,0.0692,0.0694,0.0702,0.0706,0.0668,0.0668,0.0668,0,0,0.0642,0.0642,0.0647,0.0653,0.0654,0.0661,0.0647,0.0656,0.0661,0.0648,0.066,0.0659,0.066,0.0674,0.0681,0.0675,0.0705,0.0695,0.0697,0.0697,0.0704,0.0708,0.0711,0.0669,0.0669,0.0669,0,0,0.0667,0.0668,0.068,0.0681,0.0682,0.0679,0.0682,0.0681,0.068,0.0692,0.0682,0.0688,0.0699,0.07,0.0702,0.0727,0.0719,0.0729,0.0744,0.0752,0.0755,0.0757,0.0766,0.0769,0.0731,0.0731,0.0731,0,0.0682,0.0693,0.0687,0.0696,0.0698,0.0687,0.0699,0.07,0.0703,0.0705,0.0698,0.071,0.0711,0.0725,0.0731,0.0733,0.0735,0.0729,0.0755,0.0757,0.076,0.0767,0.0771,0.0732,0.0732,0.0732,0.0731,0,0.0711,0.0719,0.0728,0.0731,0.0734,0.0745,0.0739,0.0744,0.0739,0.0736,0.0747,0.0747,0.0752,0.0755,0.075,0.0768,0.0764,0.0756,0.0744,0.0764,0.0772,0.0775,0.0733,0.0733,0.0733,0.0732,0,0,0.0748,0.0746,0.075,0.0751,0.0751,0.0757,0.0766,0.0771,0.0774,0.0777,0.0784,0.0793,0.0785,0.0788,0.0783,0.079,0.0809,0.0781,0.0781,0.0786,0.0828,0.0833,0.0837,0.0804,0.0805,0.0805,0.0827,0,0.0772,0.0788,0.0782,0.0798,0.0805,0.0794,0.0802,0.0803,0.0801,0.0806,0.0804,0.081,0.08,0.0801,0.0808,0.0805,0.0817,0.0804,0.081,0.0811,0.081,0.0841,0.0846,0.0868,0.083,0.0831,0.0831,0,0.0802,0.0806,0.0823,0.0821,0.0824,0.0831,0.0834,0.0839,0.084,0.0838,0.084,0.0834,0.0842,0.083,0.0842,0.0833,0.0835,0.0835,0.0835,0.0835,0.0822,0.0841,0.0874,0.0877,0.0836,0.0835,0.0835,0,0.0826,0.0835,0.0846,0.0847,0.0846,0.0851,0.0851,0.0851,0.0854,0.0857,0.0858,0.0862,0.0864,0.0867,0.0862,0.0854,0.0874,0.0862,0.0872,0.0872,0.0876,0.0876,0.091,0.0879,0.0879,0.0879,0.0879,0,0.0854,0.0864,0.0857,0.0863,0.0875,0.0868,0.0879,0.0878,0.0878,0.0884,0.0875,0.0881,0.0874,0.0879,0.0874,0.0884,0.0885,0.0884,0.0882,0.0884,0.0884,0.0885,0.0883,0.088,0.088,0.088,0.0879,0,0.0882,0.0878,0.0889,0.0887,0.0886,0.0895,0.0893,0.0899,0.0896,0.0903,0.0905,0.09,0.0905,0.09,0.0906,0.0903,0.0916,0.0913,0.0915,0.0914,0.0925,0.0923,0.096,0.0964,0.0931,0.0931,0.0932,0,0.09,0.0907,0.0906,0.0909,0.0909,0.0915,0.0918,0.0911,0.0914,0.0915,0.0921,0.0925,0.0929,0.0938,0.0935,0.0939,0.0935,0.0948,0.0936,0.0937,0.0934,0.0934,0.0934,0.095,0.095,0.0951,0.0951,0,0.0931,0.0928,0.0932,0.0935,0.0939,0.0941,0.0943,0.0946,0.0939,0.0943,0.0948,0.0951,0.0956,0.096,0.0963,0.0962,0.0955,0.0955,0.0957,0.0959,0.096,0.0958,0.0921,0.0954,0.0953,0.0953,0.0953,0.0953,0.0954,0.096,0.0959,0.0964,0.0964,0.0966,0.0971,0.0969,0.0973,0.0976,0.0972,0.0979,0.0979,0.0982,0.0982,0.0987,0.0981,0.0985,0.0986,0.0987,0.0988,0.0959,0.0987,0.0987,0.0987,0.0987,0.0987,0,0.0983,0.0982,0.0987,0.0989,0.0993,0.0986,0.0987,0.0991,0.0996,0.0997,0.1,0.1006,0.101,0.1007,0.1011,0.1015,0.1012,0.1016,0.1015,0.1015,0.0993,0.099,0.1019,0.1019,0.1019,0.1019,0.1019,0.1019,0.0999,0.1009,0.1006,0.1015,0.1014,0.102,0.1022,0.1023,0.1023,0.103,0.1033,0.1031,0.1031,0.1034,0.1037,0.1036,0.1038,0.1043,0.1041,0.102,0.1017,0.1014,0.1011,0.1044,0.1044,0.1063,0.1063,0.1063]},{"header":{"parameterUnit":"m.s-1","parameterCategory":1,"la1":30.2991,"la2":30.254,"lo1":-89.0895,"lo2":-89.0444,"dy":0.0017,"dx":0.0017,"nx":28,"ny":28,"refTime":"2025-07-27T09:00:00:Z","depth":0,"parameterNumber":3,"parameterNumberName":"V-component_of_WINDS"},"data":[0,0,0,0,0,0,0,0,0,0,0,0,0,0,0,0,0,0,0,0,0,0,0,0,0,0,0,0,0,0,0,0,0,0,0,0,0,0,0,0,0,0,0,0,0,0,0,0,0,0,0,0,0,0,0,0,0,0,0.7219,0.722,0,0.7262,0.7262,0.7263,0.7239,0.7238,0.7237,0.7235,0.7276,0.7278,0.728,0,0,0,0,0,0,0,0,0,0,0,0,0,0.7115,0.7117,0.7219,0.722,0.7221,0.7262,0.7262,0.7263,0.7239,0.7238,0.7236,0.7235,0.7275,0.7278,0.7281,0,0,0,0,0,0,0,0,0,0,0,0,0,0.7159,0.7118,0.7219,0.7214,0.7214,0.7262,0.7262,0.7263,0.7239,0.7238,0.7236,0.7234,0.7275,0.7278,0.7281,0.7336,0,0,0.7291,0.7292,0,0,0,0,0,0,0,0,0.7157,0.7163,0.7214,0.7214,0.7214,0.7243,0.724,0.7287,0.724,0.723,0.7235,0.7233,0.7266,0.727,0.7282,0.7338,0.734,0.7291,0.7293,0.7294,0.7295,0,0,0,0,0,0,0,0.7154,0.7161,0.7236,0.7215,0.7215,0.7208,0.7212,0.7249,0.7257,0.723,0.7229,0.7234,0.7266,0.7279,0.7283,0.734,0.7291,0.7294,0.7296,0.7297,0.7442,0.7444,0,0,0,0,0,0,0.7152,0.7159,0.7235,0.7237,0.7181,0.7211,0.7216,0.7236,0.7257,0.7258,0.7236,0.7233,0.7274,0.7279,0.7284,0.7349,0.7294,0.7298,0.7299,0.7441,0.7443,0.7445,0,0,0,0,0,0,0.7149,0.7159,0.7233,0.7198,0.7207,0.7215,0.7237,0.7237,0.725,0.7261,0.7262,0.7247,0.7273,0.7279,0.7323,0.7351,0.7299,0.7302,0.7438,0.7441,0.7444,0.7481,0,0,0,0,0,0,0.7146,0.7158,0.718,0.7198,0.7209,0.7273,0.7239,0.724,0.7256,0.7253,0.7272,0.7273,0.7272,0.7318,0.7326,0.7354,0.7304,0.7436,0.744,0.7443,0.7477,0.7485,0.7491,0,0,0,0,0,0.7143,0.7188,0.7181,0.719,0.7236,0.7274,0.728,0.7278,0.7258,0.728,0.7287,0.7273,0.7346,0.7323,0.7332,0.7361,0.7434,0.7439,0.7443,0.7474,0.7483,0.7491,0,0,0,0,0,0,0.7171,0.719,0.7183,0.7235,0.7254,0.727,0.7297,0.7288,0.7311,0.7307,0.7303,0.7308,0.7353,0.7361,0.7335,0.7415,0.7387,0.7393,0.7408,0.7417,0.7423,0.742,0.7307,0,0,0,0,0,0.7184,0.7214,0.7229,0.7274,0.7283,0.7289,0.7305,0.7302,0.732,0.7328,0.7338,0.7355,0.7382,0.74,0.7425,0.7478,0.7482,0.7503,0.7509,0.7515,0.752,0.7549,0.7558,0.7459,0.7459,0.7459,0,0,0.721,0.7224,0.7243,0.728,0.7294,0.7324,0.7295,0.7329,0.7351,0.7332,0.7375,0.7383,0.7401,0.745,0.7472,0.7458,0.7548,0.752,0.7525,0.7527,0.7554,0.7563,0.7572,0.7462,0.7461,0.7461,0,0,0.7273,0.7287,0.7326,0.734,0.7362,0.7365,0.7374,0.7392,0.7397,0.744,0.7426,0.7452,0.7498,0.7513,0.7526,0.7594,0.7582,0.7602,0.7638,0.7665,0.7673,0.768,0.7704,0.7713,0.7607,0.7607,0.7607,0,0.7302,0.7349,0.7347,0.7382,0.7398,0.7383,0.7422,0.7435,0.7464,0.7475,0.7459,0.7517,0.7529,0.758,0.7597,0.7608,0.7618,0.76,0.7672,0.7679,0.7686,0.7708,0.7717,0.761,0.7609,0.7609,0.7609,0,0.7384,0.7416,0.7445,0.7473,0.7492,0.7529,0.7532,0.7551,0.7546,0.7551,0.7594,0.7607,0.7635,0.7647,0.7642,0.7698,0.7689,0.7673,0.7645,0.7697,0.7719,0.7727,0.7613,0.7612,0.7611,0.7611,0,0,0.7466,0.7493,0.7504,0.7516,0.7538,0.7563,0.7598,0.7626,0.7643,0.7662,0.7691,0.7731,0.7717,0.7732,0.7728,0.7752,0.7805,0.7734,0.7734,0.7746,0.7866,0.7878,0.7888,0.7797,0.7799,0.78,0.7865,0,0.753,0.7593,0.7592,0.7651,0.768,0.7666,0.7697,0.7713,0.7718,0.7743,0.7748,0.7776,0.7755,0.7764,0.7788,0.7794,0.7829,0.7789,0.7823,0.7825,0.7819,0.7899,0.7912,0.7972,0.7873,0.7874,0.7875,0,0.7614,0.7637,0.7699,0.7716,0.7728,0.7756,0.7782,0.7806,0.7824,0.7825,0.7842,0.7835,0.787,0.7841,0.7889,0.7861,0.7875,0.788,0.7883,0.7886,0.7853,0.7904,0.7992,0.8001,0.7888,0.7887,0.7886,0,0.7667,0.7714,0.7757,0.7768,0.779,0.7809,0.7819,0.7836,0.7852,0.7874,0.7885,0.791,0.7923,0.7943,0.7942,0.7921,0.799,0.7961,0.7992,0.7992,0.8007,0.8006,0.8098,0.8016,0.8016,0.8016,0.8016,0,0.7739,0.7777,0.7781,0.7807,0.7849,0.7847,0.7888,0.7896,0.7911,0.7937,0.7926,0.7951,0.7949,0.7974,0.7974,0.8013,0.8019,0.8021,0.8021,0.8022,0.8022,0.8031,0.8027,0.8018,0.8018,0.8017,0.8017,0,0.7806,0.7811,0.7856,0.7873,0.7878,0.7908,0.7922,0.7947,0.7951,0.7985,0.7992,0.7998,0.8027,0.8029,0.8062,0.8061,0.8109,0.8104,0.8104,0.8102,0.8133,0.813,0.8234,0.8247,0.8157,0.8158,0.8159,0,0.7852,0.7881,0.7901,0.7919,0.793,0.7958,0.7976,0.7974,0.7992,0.8015,0.8036,0.8064,0.8087,0.8133,0.814,0.8165,0.816,0.8195,0.8164,0.8165,0.8161,0.8159,0.8162,0.8201,0.8202,0.8203,0.8203,0,0.7932,0.7933,0.7959,0.7985,0.8006,0.8027,0.8046,0.806,0.8061,0.8082,0.8112,0.8129,0.8163,0.8191,0.8215,0.8224,0.8214,0.8213,0.8222,0.8224,0.8222,0.8223,0.812,0.8211,0.821,0.8209,0.8209,0.8209,0.799,0.8015,0.8033,0.8062,0.8076,0.8094,0.8118,0.8125,0.8151,0.8179,0.8176,0.8209,0.8226,0.8258,0.8268,0.8294,0.8282,0.8294,0.8297,0.83,0.8303,0.8218,0.8298,0.8298,0.8297,0.8297,0.8297,0,0.807,0.8081,0.8107,0.8135,0.8157,0.8146,0.8167,0.8186,0.8215,0.8232,0.8255,0.8289,0.8315,0.8324,0.835,0.8368,0.8364,0.8375,0.8374,0.8376,0.8313,0.8303,0.8378,0.8378,0.8378,0.8378,0.8378,0.8378,0.8114,0.8156,0.8158,0.8207,0.8217,0.825,0.8263,0.8279,0.8292,0.8331,0.8354,0.836,0.8373,0.8399,0.8423,0.8425,0.8435,0.8448,0.8448,0.8388,0.838,0.8373,0.8363,0.845,0.845,0.8509,0.8509,0.851]}]]